TimeCDT,TemperatureF,Dew PointF,Humidity,Sea Level PressureIn,VisibilityMPH,Wind Direction,Wind SpeedMPH,Gust SpeedMPH,PrecipitationIn,Events,Conditions,WindDirDegrees,DateUTC
12:54 AM,66.9,54.0,63,29.98,10.0,SSW,6.9,-,N/A,,Overcast,200,2014-04-21 05:54:00
1:54 AM,68.0,54.0,61,29.97,10.0,SW,5.8,-,N/A,,Overcast,230,2014-04-21 06:54:00
2:54 AM,66.9,55.0,66,29.97,10.0,SW,5.8,-,0.00,,Overcast,220,2014-04-21 07:54:00
3:54 AM,66.9,54.0,63,29.96,10.0,SW,5.8,-,N/A,,Overcast,220,2014-04-21 08:54:00
4:54 AM,66.0,55.0,68,29.96,10.0,SW,6.9,-,N/A,,Overcast,220,2014-04-21 09:54:00
5:54 AM,66.0,55.0,68,29.96,10.0,SSW,6.9,-,N/A,,Overcast,200,2014-04-21 10:54:00
6:54 AM,64.0,55.9,75,29.96,10.0,SSW,6.9,-,0.00,,Overcast,210,2014-04-21 11:54:00
7:18 AM,64.0,57.0,78,29.99,8.0,SSW,3.5,-,0.00,Rain,Light Rain,210,2014-04-21 12:18:00
7:39 AM,63.0,57.0,81,29.98,9.0,South,8.1,-,0.00,Rain,Light Rain,170,2014-04-21 12:39:00
7:54 AM,63.0,57.9,84,29.97,9.0,South,9.2,-,0.00,,Overcast,180,2014-04-21 12:54:00
8:41 AM,64.0,57.9,80,30.00,8.0,SSW,8.1,-,N/A,,Overcast,210,2014-04-21 13:41:00
8:54 AM,64.0,57.9,80,29.99,6.0,SSW,4.6,-,N/A,,Haze,210,2014-04-21 13:54:00
9:54 AM,64.9,59.0,81,29.98,9.0,SW,9.2,-,0.00,,Overcast,230,2014-04-21 14:54:00
10:11 AM,68.0,59.0,73,29.98,9.0,SSW,9.2,-,N/A,,Mostly Cloudy,210,2014-04-21 15:11:00
10:27 AM,66.9,57.9,73,29.98,10.0,SSW,8.1,-,N/A,,Mostly Cloudy,210,2014-04-21 15:27:00
10:54 AM,66.9,57.0,70,29.97,10.0,WSW,10.4,-,N/A,,Overcast,240,2014-04-21 15:54:00
11:54 AM,69.1,57.9,68,29.96,10.0,Variable,4.6,-,N/A,,Overcast,0,2014-04-21 16:54:00
12:54 PM,71.1,57.9,63,29.95,10.0,North,-9999.0,-,N/A,,Overcast,0,2014-04-21 17:54:00
1:09 PM,72.0,57.9,61,29.96,10.0,SSW,3.5,-,N/A,,Mostly Cloudy,200,2014-04-21 18:09:00
1:54 PM,73.0,57.9,59,29.94,10.0,Variable,3.5,-,N/A,,Overcast,0,2014-04-21 18:54:00
2:54 PM,71.1,60.1,68,29.94,10.0,WNW,3.5,-,0.00,Rain,Light Rain,290,2014-04-21 19:54:00
3:54 PM,72.0,59.0,64,29.94,10.0,NW,9.2,-,0.00,,Scattered Clouds,320,2014-04-21 20:54:00
4:54 PM,73.0,57.0,57,29.92,10.0,NW,9.2,-,N/A,,Partly Cloudy,310,2014-04-21 21:54:00
5:54 PM,75.0,57.0,53,29.91,10.0,WNW,8.1,-,N/A,,Partly Cloudy,290,2014-04-21 22:54:00
6:54 PM,73.9,55.9,53,29.91,10.0,NNW,8.1,-,N/A,,Mostly Cloudy,330,2014-04-21 23:54:00
7:54 PM,72.0,48.9,44,29.94,10.0,North,12.7,23.0,N/A,,Scattered Clouds,360,2014-04-22 00:54:00
8:54 PM,69.1,41.0,36,29.99,10.0,North,9.2,-,N/A,,Scattered Clouds,350,2014-04-22 01:54:00
9:54 PM,66.0,36.0,33,30.01,10.0,NNW,4.6,-,N/A,,Clear,340,2014-04-22 02:54:00
10:54 PM,64.9,34.0,32,30.01,10.0,NNW,4.6,-,N/A,,Clear,340,2014-04-22 03:54:00
11:54 PM,62.1,33.1,34,30.02,10.0,NNW,4.6,-,N/A,,Clear,330,2014-04-22 04:54:00